Regional Weather Roundup
Issued by NWS

Home | Current Version | Previous Version | Graphics & Text | Print | Product List | Glossary On
Versions: 1 2 3 4 5 6 7 8 9 10 11 12 13 14 15 16 17 18 19 20 21 22 23 24 25 26 27 28 29 30 31 32 33 34 35 36 37 38 39 40 41 42 43 44 45 46 47 48 49 50
000
ASUS43 KIND 201459
RWRIN

WEATHER ROUNDUP FOR INDIANA
NATIONAL WEATHER SERVICE INDIANAPOLIS IN
1100 AM EDT WED AUG 20 2014

NOTE: "FAIR" INDICATES FEW OR NO CLOUDS BELOW 12,000 FEET WITH NO
SIGNIFICANT WEATHER AND/OR OBSTRUCTIONS TO VISIBILITY.

* - STATION DOES NOT REPORT WEATHER SUCH AS PRECIPITATION OR FOG.

+ - STATION NOT QUALITY CONTROLLED BY THE NATIONAL WEATHER SERVICE.
    USE DATA WITH CAUTION...ESPECIALLY DEWPOINT AND RELATIVE
    HUMIDITY OBSERVATIONS.

INZ001>003-010>013-019-020-201600-
NORTHWEST INDIANA

CITY           SKY/WX    TMP DP  RH WIND       PRES   REMARKS
GARY /AIRPORT/ MOSUNNY   79  64  61 SW5       29.89R
KNOX *+        SUNNY     76  66  69 W3        29.89R
MONTICELLO +   SUNNY     76  70  80 SW6       29.91R
VALPARAISO     SUNNY     79  64  60 VRB5      29.89F

$$

LMZ046-743>745-201600-
SOUTHERN LAKE MICHIGAN

STATION/POSITION TIME  TEMP WIND        PRES
                       AIR  DIR/SP/G
                 (UTC) (F)  (DEG/KT/KT) (MB)
BURNS HARBOR     1400   73  260/  3/  4   N/A
MICHIGAN CITY    1400   71  220/ 10/ 11   N/A

$$

INZ004-005-014>016-021>024-201600-
NORTH CENTRAL INDIANA

CITY           SKY/WX    TMP DP  RH WIND       PRES   REMARKS
ELKHART        SUNNY     77  64  65 W5        29.90R
GOSHEN         SUNNY     78  68  71 SW8       29.90R
SOUTH BEND     SUNNY     77  65  66 CALM      29.90
WARSAW +       SUNNY     77  66  69 SW7       29.91R

$$

INZ006>009-017-018-025>027-201600-
NORTHEAST INDIANA

CITY           SKY/WX    TMP DP  RH WIND       PRES   REMARKS
ANGOLA *+      SUNNY     79  68  69 NW5       29.89R
FORT WAYNE     SUNNY     77  68  73 SW8       29.92R

$$

INZ028-029-035-036-043>045-051>053-201600-
WEST CENTRAL INDIANA

CITY           SKY/WX    TMP DP  RH WIND       PRES   REMARKS
GREENCASTLE +  MOSUNNY   73  72  94 CALM      29.95R
LAFAYETTE      SUNNY     76  68  76 SW3       29.92R
TERRE HAUTE    SUNNY     81  72  74 W5        29.94R

$$

INZ030>032-037>040-046>048-054>057-064-065-201600-
CENTRAL INDIANA

CITY           SKY/WX    TMP DP  RH WIND       PRES   REMARKS
ANDERSON       SUNNY     75  70  83 CALM      29.95R
COLUMBUS       MOSUNNY   75  73  94 CALM      29.96R
FRANKFORT +    SUNNY     78  71  79 SW6       29.95R
INDIANAPOLIS   MOSUNNY   77  71  82 SW6       29.94R
-EAGLE CREEK   SUNNY     77  68  73 W5        29.94R
KOKOMO *+      SUNNY     79  66  65 NW6       29.92S
MT COMFORT *+  MOSUNNY   75  75 100 S6        29.94S
SHELBYVILLE    PTSUNNY   75  70  84 W5        29.95R

$$

INZ033-034-041-042-049-050-058-059-201600-
EAST CENTRAL INDIANA

CITY           SKY/WX    TMP DP  RH WIND       PRES   REMARKS
MUNCIE         SUNNY     77  67  71 SW7       29.93R

$$

INZ060-061-067>069-081>083-085>088-201600-
SOUTHWEST INDIANA

CITY           SKY/WX    TMP DP  RH WIND       PRES   REMARKS
EVANSVILLE     MOSUNNY   84  73  69 CALM      29.94S

$$

INZ062-063-066-070>080-084-089>092-201600-
SOUTH CENTRAL AND SOUTHEAST INDIANA

CITY           SKY/WX    TMP DP  RH WIND       PRES   REMARKS
BLOOMINGTON    PTSUNNY   78  73  84 W5        29.96R

$$




USA.gov is the U.S. government's official web portal to all federal, state and local government web resources and services.